Погода в Ивделе

Погода в Ивделе : погода сейчас, прогноз погоды и архив. Всё, что Вы хотите узнать о погоде в Ивделе!

Хотите узнать прогноз погоды в Ивделе? Тогда Вам сюда: Погода в Ивделе

Поиск расширенной информации на нашем сайте:

Другие новости

Новости СМИ2

Главная страница сайта

Новости сайта

02.10.2013

Напоминаем, что на нашем новом сайте вы можете получить высокодетализированные прогнозы погоды по пунктам России, СНГ и мира (включающие важные для авиации метеовеличины, такие как направление и скорость ветра, видимость, явления погоды, количество и форма облачности, нижняя и верхняя граница облачности), а также ознакомиться с разнообразными материалами по авиационной метеорологии и подборкой полезных ссылок на эту тему.

Сайт Метеоцентр.Азия посвящён разработке технологий оптимизации авиаметеорологического обслуживания, включая проектирование и перспективное создание нескольких автоматизированных авиаметеорологических систем:
- система выпуска высокодетальных прогностических карт явлений погоды для нижнего воздушного пространства по России и ближнему зарубежью;
- система верификации прогнозов TAF (выпускаемых синоптиками официальных АМСГ РФ и ближнего зарубежья) и AUTOTAF (выпускаемых сайтом Метеоцентр.Азия) - выявление ошибок, онлайн-сопоставление с фактической погодой METAR, автоматическое внесение коррективов в прогнозы при резком отклонении фактической погоды от прогноза, подсчёт оправдываемости прогнозов по элементам и в целом;
- система обработки, анализа и отображения авиаметеорологической информации для применения провайдерами метеорологической информации.


Погода в Ивделе - сегодня

Время (UTC), дата Ветер
(°,м/с) 
Видим.   Явления Облачность Т
(°С)
Тd
(°С)
f(%) Тe
(°С)
Pmin
(гПа)
dP
(гПа)
Po
(мм)
O2
(г/м3)
Тmin Tmax R s Состояние
почвы
12 18.01.17 тихо ()   20000 м    3/0 средняя, верхняя 
[Ac trans|Ci fib]
-17.3 -19.7 82 -17  1027.2  -1.6  761  329           
15 18.01.17 тихо ()   10 км    3/0 верхняя 
[Ci fib]
-21.5 -24 80 -22  1025.5  -1.8  759  334    -11.4       
18 18.01.17 тихо ()   10 км    1/0 верхняя 
[Ci fib]
-23.6 -26.6 76 -24  1023.5  -2.2  758  336           
21 18.01.17 тихо ()   20000 м    3/0 верхняя 
[Ci fib]
-23.4 -26.5 76 -23  1021.4  -2  756  335           
00 19.01.17 тихо ()   20000 м    1/0 верхняя 
[Ci fib]
-25.8 -29 75 -26  1019.6  -1.9  755  338           
03 19.01.17 тихо ()   10 км    9/9 1000 м 
[Sc]
-24.5 -27.7 75 -25  1018  -1.5  754  335  -27      38  равномерный
сухой снег
100% 
06 19.01.17 тихо ()   20000 м    8/3 1000 м средняя, верхняя 
[Sc|Ac trans|Ci fib]
-22.2 -25.4 75 -22  1017.2  -0.6  753  332           
09 19.01.17 310 (СЗ) 20000 м    1/0 средняя 
[Ac lent]
-15.8 -19.9 71 -16  1015.3  -1.7  752  323           
12 19.01.17 180 (Ю) 20000 м    6/3 1000 м средняя, верхняя 
[Sc|Ac trans|Ci fib]
-17.5 -20.7 76 -20  1013.6  -1.7  751  325           
15 19.01.17 330 (СЗ) 10 км    3/0 верхняя 
[Ci fib]
-22.3 -25 79 -23  1010.1  -3.7  748  330    -12.2       
18 19.01.17 тихо ()   10 км    10/10 1000 м 
[Sc]
-23.8 -26.8 76 -24  1005.9  -4.2  745  331           
21 19.01.17 170 (Ю) 10 км  слаб. снег  10/10 500 м 
[Ns]
-14 -16.4 82 -16  1000.8  -4.6  741  316           
00 20.01.17 100 (В) 20000 м  слаб. снег  10/3 1000 м средняя 
[Sc|Ac As]
-14.5 -17.2 80 -15  998.1  -2.7  739  316           
03 20.01.17 180 (Ю) 10 км  в посл. час снег  10/8 1000 м средняя 
[Sc|Ac trans]
-16.7 -18.9 83 -17  995.5  -2.6  737  318  -24.8    0.0  39  равномерный
сухой снег
100% 
06 20.01.17 тихо ()   29000 м  {снег}  9/6 1000 м средняя 
[Sc|Ac trans]
-15.5 -17.9 82 -16  993.9  -1.5  736  316           
09 20.01.17 тихо ()   45000 м    9/8 1000 м средняя 
[Sc|Ac trans]
-12.2 -14.6 82 -12  991.7  -2  735  311           
12 20.01.17 170 (Ю) 24000 м  слаб. снег  10/4 1000 м средняя 
[Sc|Ac As]
-9 -12.2 78 -12  989.3  -2.3  733  307           
15 20.01.17 150 (ЮВ) 10 км  {снег}  10/3 1000 м средняя 
[Sc|Ac trans]
-10.3 -12.8 82 -12  987.2  -2.1  731  307    -8.6       
18 20.01.17 140 (ЮВ) 10 км  слаб. снег  10/0 средняя 
[As trans]
-10.7 -13.4 80 -13  985.4  -1.8  730  307           
21 20.01.17 190 (Ю) 10 км  слаб. снег  10/0 средняя 
[As trans]
-12.9 -14.9 85 -13  983.8  -1.6  729  309           
00 21.01.17 тихо ()   10 км  слаб. снег  10/0 средняя 
[As trans]
-13.2 -15 86 -13  982.4  -1.5  728  309           
03 21.01.17 тихо ()   20000 м  {снег}  8/4 1000 м средняя 
[Sc|Ac trans]
-18.1 -20.4 82 -18  981.2  -1.4  727  315  -18.3    0.5  40  равномерный
сухой снег
100% 
06 21.01.17 тихо ()   20000 м  {снег}  9/4 1000 м средняя 
[Sc|Ac trans]
-17.5 -20.2 79 -18  980.4  -0.8  726  314  -19.3         
09 21.01.17 тихо ()   45000 м  слаб. ливневой снег  9/8 600 м кучево-дожд., средняя 
[Cb cap|Ac trans]
-12.7 -15.2 81 -13  980.6  0.4  726  308           
12 21.01.17 310 (СЗ) 28000 м  слаб. ливневой снег  10/8 600 м кучево-дожд., средняя 
[Cb cap|Ac trans]
-13.3 -15.3 85 -13  982.2  1.6  728  309           
Время (UTC), дата Ветер
(°,м/с) 
Видим.   Явления Облачность Т
(°С)
Тd
(°С)
f(%) Тe
(°С)
Pmin
(гПа)
dP
(гПа)
Po
(мм)
O2
(г/м3)
Тmin Tmax R s Состояние
почвы

Для получения пояснительной информации подведите курсор к названию столбца.

ПОГОДА в Ивделе - архив

Всё, что Вы хотите узнать о погоде в Ивделе - удобно и подробно!

Выберите нужную дату (начиная с 1 января 2015* года) и нажмите кнопку "Найти".
Будут отображены архивные сводки погоды по пункту Ивдель, начиная с указанной даты.


Отображать данные в формате CSV (для использования в таблицах Excel)


Внимание! Наш архив погоды предназначен исключительно для личного некоммерческого использования в познавательных целях. Если Вам необходимы официальные справки о состоянии погоды (для производственных, юридических, коммерческих и т.п. целей), обращайтесь в органы Росгидромета.

*Примечание: данная дата относится к архиву по метеостанциям СССР (Россия, СНГ, Балтия).
Архив по метеостанциям Зарубежной Европы и Азии (кроме Китая) хранится 10 дней, по другим регионам земного шара (Китай, Африка, Америка, Австралия, Океания) - 1 день.

Ивдель - район местоположения метеостанции


Название, широта, долгота, высота метеостанции:
Ивдель 60.7°ш. 60.4°д. 95 м над ур. моря [Российская Федерация]

Дополнительная информация

В oтличие oт бoльшинства пoгoдных сайтoв мы публикуем пoдрoбную метеoинфoрмацию в детальнoм прoфессиoнальнoм фoрмате.

Характеристики температуры и влажнoсти вoздуха измеряются на высoте 2 м в тени вдали oт зданий и деревьев.
Скoрoсть ветра измеряется на высoте 10 м (на урoвне рoста челoвека скoрoсть ветра ниже в 1.5-2 раза). Если метеoстанция нахoдится в гoрoде или в лесу, тo скoрoсть ветра занижена на 2-4 м/с пo сравнению с oткрытым местoм. Скoрoсть ветра над акватoриями крупных рек и oзёр, а также на вершинах хoлмoв на 2-5 м/с выше, чем в oбычных услoвиях.
Атмoсфернoе давление в разных тoчках местнoсти мoжет значительнo oтличаться oт давления на метеoстанции, в зависимoсти oт услoвий рельефа (при пoдъёме на 10 м давление пoнижается примернo на 1 мм рт.ст.).